STARLINK-2233 (48579 NORAD) Tracking and Keplerian Element Data

This shows tracking and keplerian element data for the satellite.

Feedback or suggestion? Click here.




ElementValue
Catalog48579
NameSTARLINK-2233
Epoch Orbit2348
Epoch Day287.99251576
Epoch Year2021
RAAN144.36
Inclination53.0543
Eccentricity0.0002648
Argument of Perigee54.7248
Mean Anonmoly305.3988
Mean Motion15.0638378
Decay Rate-2.523E-05
L11 48579U 21041AC 21287.99251576 -.00002523 00000-0 -15053-3 0 9996
L22 48579 53.0543 144.3600 0002648 54.7248 305.3988 15.06383780 23487

Live tracking and technical data element details for STARLINK-2233 (NORAD 48579). STARLINK-2233 can be tracked NOW for your location showing map with azimuth and elevation plus other details from your city location.

Track the satellite on the map from your city or location and see movement details for azimuth, elevation, latitude, longitude, range, height, and movement on the map or in text.







IsCatalogInMostPopularTable: catalog: 48579, numindb: 44
Update: records affected: 1



GetName: 48579 STARLINK-2233

Hit Count: updated at: Tue, 19 Oct 2021 09:39:14 GMT